Regional Weather Roundup
Issued by NWS

Home | Current Version | Previous Version | Graphics & Text | Print | Product List | Glossary On
Versions: 1 2 3 4 5 6 7 8 9 10 11 12 13 14 15 16 17 18 19 20 21 22 23 24 25 26 27 28 29 30 31 32 33 34 35 36 37 38 39 40 41 42 43 44 45 46 47 48 49 50
000
ASUS43 KDMX 030601
RWRIA

WEATHER ROUNDUP FOR IOWA
NATIONAL WEATHER SERVICE DES MOINES IA
1200 AM CST SAT DEC 03 2016

NOTE: "FAIR" INDICATES FEW OR NO CLOUDS BELOW 12,000 FEET WITH NO
SIGNIFICANT WEATHER AND/OR OBSTRUCTIONS TO VISIBILITY.

* - THESE STATIONS ARE NOT NWS STATIONS...THUS NOT UNDER NWS
QUALITY CONTROL.  THEY ALSO DO NOT REPORT WEATHER SUCH
AS PRECIPITATION OR FOG.

IAZ001>003-012>014-020>022-031>034-043>046-030700-
   NORTHWEST IOWA

CITY           SKY/WX    TMP DP  RH WIND       PRES   REMARKS
CARROLL *      CLOUDY    34  34 100 CALM      30.32S
CHEROKEE *     CLOUDY    32  30  92 CALM      30.31F
DENISON *      CLOUDY    34  30  86 N3        30.30S
LE MARS *      CLOUDY    32  28  86 SE5       30.32F WCI  27
ORANGE CITY *  CLOUDY    30  28  93 CALM      30.30R
SHELDON *      CLOUDY    30  28  93 CALM      30.28F
SIOUX CITY     CLEAR     28  25  88 CALM      30.33R
6HR MIN TEMP:  27; 6HR MAX TEMP:  37;

SPENCER        CLOUDY    31  26  82 NW5       30.30S WCI  26
6HR MIN TEMP:  31; 6HR MAX TEMP:  33;

STORM LAKE *   CLOUDY    32  28  86 NW6       30.30F WCI  26
$$

IAZ055>058-069>071-079>083-090>094-030700-
   SOUTHWEST IOWA

CITY           SKY/WX    TMP DP  RH WIND       PRES   REMARKS
ATLANTIC *     CLOUDY    36  30  80 CALM      30.33S
AUDUBON *      CLOUDY    34  30  86 CALM      30.32F
CLARINDA *       N/A     25  25 100 SW5       30.39R WCI  19
COUNCIL BLFS * PTCLDY    30  28  93 CALM      30.33S
CRESTON *      CLOUDY    34  30  86 CALM      30.35R
HARLAN  *      CLOUDY    34  32  93 CALM      30.36S
RED OAK *      CLEAR     25  23  93 S3        30.36R
SHENANDOAH *   PTCLDY    25  25 100 SW3       30.38R
$$

IAZ047>049-059>061-072>074-084-030700-
   CENTRAL IOWA

CITY           SKY/WX    TMP DP  RH WIND       PRES   REMARKS
AMES           CLOUDY    34  28  79 CALM      30.34S
6HR MIN TEMP:  34; 6HR MAX TEMP:  36;

ANKENY *       CLOUDY    34  34 100 N3        30.34F
BOONE *        CLOUDY    32  28  86 CALM      30.32S
CHARITON *       N/A     34  32  93 NE3       30.33S
DES MOINES     CLOUDY    37  29  72 CALM      30.34S
6HR MIN TEMP:  37; 6HR MAX TEMP:  38;

GRINNELL*      CLOUDY    32  29  89 CALM      30.33F
KNOXVILLE *    CLOUDY    36  28  75 CALM      30.33R
MARSHALLTOWN   CLOUDY    32  27  81 N3        30.33S
6HR MIN TEMP:  32; 6HR MAX TEMP:  33;

NEWTON *       CLOUDY    34  30  86 N5        30.32F WCI  30
PELLA *        CLOUDY    34  30  84 CALM      30.35S
PERRY *        CLOUDY    35  35 100 CALM      30.33S
$$

IAZ004>006-015-016-023>025-035-036-030700-
   NORTH CENTRAL IOWA

CITY           SKY/WX    TMP DP  RH WIND       PRES   REMARKS
ALGONA *       CLOUDY    32  30  93 NW6       30.31S WCI  26
CLARION *      CLOUDY    32  28  86 CALM      30.32S
ESTHERVILLE    CLOUDY    29  24  82 W3        30.30S
6HR MIN TEMP:  29; 6HR MAX TEMP:  31;

FORT DODGE *   CLOUDY    32  25  74 CALM      30.32F
MASON CITY     CLOUDY    29  23  78 CALM      30.33S
6HR MIN TEMP:  29; 6HR MAX TEMP:  30;

WEBSTER CITY * CLOUDY    32  30  93 S3        30.30F
IOWA FALLS *   CLOUDY    33  26  76 N3        30.33S
$$

IAZ007>011-017>019-026>030-037>042-050>054-066-030700-
   NORTHEAST IOWA

CITY           SKY/WX    TMP DP  RH WIND       PRES   REMARKS
CEDAR RAPIDS   CLOUDY    31  29  92 W5        30.33R WCI  26
6HR MIN TEMP:  30; 6HR MAX TEMP:  33;

CHARLES CITY * CLOUDY    30  25  80 NW6       30.32F WCI  24
CLINTON *      CLOUDY    33  27  78 W7        30.35R WCI  27
DECORAH *      CLOUDY    28  21  74 VRB5      30.30F WCI  23
DUBUQUE        CLOUDY    30  23  75 N5        30.32S WCI  25
6HR MIN TEMP:  30; 6HR MAX TEMP:  32;

MONTICELLO *   CLOUDY    32  25  74 NW13      30.33S WCI  22
OELWEIN *      CLOUDY    30  27  86 NW10      30.32F WCI  21
WATERLOO       CLOUDY    31  22  69 NW7       30.33S WCI  24
6HR MIN TEMP:  31; 6HR MAX TEMP:  32;

$$

IAZ064-065-067-068-078-030700-
   EAST CENTRAL IOWA

CITY           SKY/WX    TMP DP  RH WIND       PRES   REMARKS
DAVENPORT      CLOUDY    32  26  78 N8        30.34R WCI  25
6HR MIN TEMP:  32; 6HR MAX TEMP:  34;

IOWA CITY      CLOUDY    33  26  75 NW3       30.35F
6HR MIN TEMP:  33; 6HR MAX TEMP:  36;

MUSCATINE *    CLOUDY    32  27  80 N5        30.35F WCI  27
QUAD CITIES    MOCLDY    34  25  69 N8        30.32F WCI  27
6HR MIN TEMP:  34; 6HR MAX TEMP:  37;

$$

IAZ062-063-075>077-085>089-095>099-030700-
   SOUTHEAST IOWA

CITY           SKY/WX    TMP DP  RH WIND       PRES   REMARKS
FAIRFIELD *    MOCLDY    32  27  80 CALM      30.34R
FORT MADISON * CLOUDY    36  30  80 CALM      30.35S
KEOKUK *       CLOUDY    34  30  86 CALM      30.34S
OSKALOOSA *    CLOUDY    32  30  92 CALM      30.35R
CENTERVILLE *  MOCLDY    32  28  86 CALM      30.35R
OTTUMWA        CLOUDY    35  28  75 CALM      30.34R
6HR MIN TEMP:  35; 6HR MAX TEMP:  39;

WASHINGTON *   MOCLDY    30  27  86 N3        30.35S
$$

ABBREVIATIONS USED IN REMARKS
   TC - TEMPERATURES IN CELSIUS
  WCI - WIND CHILL INDEX
   HX - HEAT INDEX
  VSB - VISIBILITY
$$




USA.gov is the U.S. government's official web portal to all federal, state and local government web resources and services.